User: anonymous   Login
Location: Goheenville
(40.9070°N, 79.3720°W)
Time: 22:39:19
(UTC-04:00)
Language:

Cosmos 1633 - Orbit

View from above orbital plane
View from above orbital plane
View from above satellite
View from above satellite

Ground track
Ground track

The orbit data is extracted from the following two-line orbital elements,

1 15592U 85020A   16207.18489398  .00002111  00000-0  77842-4 0  9990
2 15592  82.5394 286.6261 0012651 250.3128 109.6746 15.27160930714360
Epoch (UTC): 25 July 2016 04:26:14
Eccentricity: 0.0012651
inclination: 82.5394°
perigee height: 475 km
apogee height: 493 km
right ascension of ascending node: 286.6261°
argument of perigee: 250.3128°
revolutions per day: 15.27160930
mean anomaly at epoch: 109.6746°
orbit number at epoch: 71436

The dashed part of the orbit path shows where the satellite is in the earth's shadow,  

DLR